CAPE
1340 1546 1732 1802 1794 1621 1412 1308 1521 1629 1798 1989 1919 2050 2171 2233 2232 2255 2296 2467 2603 2574 2609 2682 2809 2872 2864 2810 2941 2778 2587 2365 2212 2132 2142 2068 2001 1975 1961 1973 1825 1661
1403 1539 1943 1879 1933 1992 1860 1549 1662 1723 1770 1832 1768 1997 2236 2278 2344 2352 2266 2385 2588 2707 2692 2726 2797 2847 2824 2788 2895 2964 2726 2510 2338 2394 2256 2198 2084 1990 1958 1890 1844 1737
1588 1577 1811 1948 1947 1924 1861 1695 1762 1912 1770 1715 1760 1934 2188 2332 2360 2466 2378 2336 2435 2627 2801 2830 2849 2896 2902 2823 2961 3013 2896 2702 2574 2513 2404 2278 2160 2117 2054 1905 1894 1813
1575 1687 1779 1898 1920 1920 1755 1631 1705 2095 2015 1834 1906 2019 2105 2300 2369 2440 2492 3062 2522 2593 2778 2952 2961 3004 3088 3126 3208 3225 3122 2998 2924 2748 2566 2368 2234 2199 2159 2138 2050 1977
1300 1413 1831 1945 1969 1990 1976 1726 1733 2039 2160 2091 2020 2185 2231 2212 2339 2400 2418 2482 2656 2650 2721 2946 3104 3098 3197 3306 3467 3484 3423 3379 3272 2935 2518 2297 2262 2281 2349 2357 2292 2110
1171 1225 1572 1966 2042 2056 2099 2055 1879 2025 2136 2184 2105 2171 2336 2288 2273 2350 2409 2420 2514 2624 2654 2764 3044 3268 3269 3253 3389 3544 3553 3491 3397 3173 2810 2644 2581 2533 2494 2412 2352 2207
1231 1230 1332 1724 1967 2057 2120 2129 2143 2088 2186 2259 2242 2168 2223 2367 2405 2358 2333 2324 2380 2549 2599 2681 2788 3099 3298 3321 3284 3399 3508 3521 3466 3255 3081 3137 3073 2968 2751 2629 2530 2346
1452 1369 1355 1526 1784 1958 2083 2145 2144 2234 2280 2334 2375 2381 2314 2254 2271 2354 2339 2295 2250 2394 2533 2617 2698 2814 3040 3223 3285 3300 3319 3372 3388 3324 3155 3038 3134 3218 3053 2815 2708 2501
1741 1658 1535 1517 1603 1720 1932 2065 2125 2118 2171 2253 2333 2384 2361 2344 2370 2382 2375 2320 2278 2282 2384 2504 2684 2749 2863 3044 3158 3253 3243 3183 3240 3271 3204 3063 2976 3034 3081 3029 2858 2524
1752 1784 1764 1648 1588 1628 1679 1804 1932 2046 2094 2119 2162 2194 2175 2156 2272 2419 2459 2386 2309 2280 2281 2365 2572 2752 2812 2964 3122 3218 3223 3053 3110 3212 3248 3238 3167 3163 3121 3024 2898 2705
1750 1780 1800 1773 1672 1622 1649 1664 1696 1732 1780 1818 1894 1984 2009 2010 1977 2020 2072 2173 2272 2256 2232 2230 2325 2561 2736 2867 3037 3146 3151 3058 3055 3141 3249 3298 3278 3251 3275 3161 2985 2762
2055 1968 1895 1873 1851 1774 1728 1718 1715 1693 1672 1625 1611 1638 1645 1674 1721 1582 1706 1933 2086 2179 2161 2149 2139 2205 2437 2614 2769 2924 2998 3010 3076 3126 3149 3181 3170 3107 3100 3115 3064 2892
2289 2231 2168 2073 2005 1948 1880 1856 1864 1886 1861 1772 1708 1712 1739 1666 1511 1400 1358 1611 1734 1911 2072 2119 2123 2122 2191 2377 2543 2630 2683 2796 2937 3025 3019 2978 2923 2883 2857 2845 2837 2794
2074 2220 2186 2055 1959 1979 1970 1932 1869 1849 1873 1853 1747 1719 1679 1624 1571 1445 1319 1372 1605 1711 1846 2005 2103 2136 2157 2216 2239 2259 2326 2464 2659 2765 2775 2756 2767 2774 2747 2693 2655 2662
1362 1578 1707 1712 1672 1712 1775 1819 1755 1711 1640 1593 1540 1541 1480 1312 1268 1378 1320 1178 1295 1579 1712 1782 1842 1900 1916 1885 1853 1911 2008 2133 2272 2425 2513 2541 2547 2571 2580 2561 2578 2631
1726 1617 1477 1330 1462 1675 1805 1874 1947 2008 1898 1617 1383 1231 1102 971 976 986 1102 1156 1064 1169 1459 1639 1712 1748 1812 1786 1794 1850 1876 1923 1986 2100 2236 2320 2348 2336 2310 2267 2335 2475
1333 1386 1239 1130 1391 1672 1778 1799 1972 2124 2163 1896 1614 1358 1075 925 812 769 748 904 964 962 1092 1295 1473 1598 1680 1769 1826 1853 1877 1861 1856 1888 1982 2117 2183 2208 2174 2151 2182 2257
1080 1051 1095 1148 1273 1465 1695 1703 1730 1949 2117 2215 1725 1260 1126 1028 1042 807 635 652 746 789 858 1054 1211 1309 1384 1499 1626 1727 1788 1810 1798 1771 1783 1869 1990 2053 2080 2115 2165 2199
894 948 981 1130 1272 1379 1442 1413 1251 1199 1469 1628 1467 1062 1037 830 910 1079 1092 933 654 674 711 697 757 1146 1286 1339 1372 1411 1493 1566 1642 1725 1738 1753 1784 1825 1889 1960 2034 2070
1085 1025 1025 1200 1228 1216 1134 1186 1179 1252 1231 1210 1405 1168 1204 1259 1405 1479 1590 1479 1271 915 871 1061 1224 1352 1144 973 1076 1271 1365 1382 1413 1474 1507 1507 1524 1583 1664 1740 1770 1741
946 958 937 951 963 958 1019 1144 1096 1059 1051 1059 1174 1196 1116 1069 1113 1148 1093 1564 1816 1880 1727 1577 1502 1450 1474 1395 1347 1123 1010 1103 1224 1291 1341 1354 1342 1340 1359 1379 1404 1446
965 908 865 904 963 908 845 888 940 928 963 1051 1111 1145 1213 1257 1262 1286 1156 1117 1410 1543 1809 1902 1946 2004 1906 1652 1449 1386 1368 1234 1048 984 1051 1193 1274 1301 1439 1518 1557 1587
684 673 682 664 700 738 872 930 815 831 861 874 991 1196 1234 1236 1238 1266 1254 1180 1122 1199 1292 1376 1443 1666 1911 2011 2046 1918 1699 1496 1401 1328 1180 1048 1042 1190 1287 1421 1577 1687
543 553 531 513 494 498 484 442 460 562 658 759 856 968 1008 1073 1015 989 1139 1216 1110 1251 1285 1268 1234 1310 1454 1593 1848 1982 2010 1922 1720 1482 1377 1334 1338 1267 1124 1070 1103 1598
375 416 438 473 502 523 496 411 415 493 563 598 584 658 728 762 774 806 917 952 1070 1186 1250 1215 1270 1294 1292 1290 1390 1535 1722 1931 1973 1880 1732 1566 1420 1368 1354 1361 1389 1379
200 235 276 305 348 385 425 464 468 368 464 587 643 632 632 626 629 597 679 748 838 955 1056 1124 1186 1212 1248 1291 1292 1268 1314 1443 1678 1743 1819 1802 1746 1715 1551 1377 1362 1366
Wind_Speed
8 8 7 6 7 9 10 10 11 10 10 10 9 10 9 11 11 11 10 11 11 11 11 12 12 13 12 12 12 11 11 11 12 11 10 10 11 12 13 14 14 12
8 8 8 7 7 9 10 9 9 9 9 9 10 9 10 10 10 10 9 10 10 10 10 10 11 11 11 10 10 10 10 11 11 10 9 10 11 12 13 13 13 12
9 9 8 7 6 6 6 8 9 9 9 8 9 10 9 10 9 9 9 8 8 9 9 9 9 9 9 9 8 8 8 9 9 9 8 9 10 10 11 12 13 13
9 9 9 8 7 6 7 7 8 9 11 9 8 8 8 8 8 7 8 7 7 7 8 8 7 7 7 7 7 7 7 7 7 7 8 9 9 9 10 10 11 13
8 10 10 10 9 9 9 8 6 7 8 8 9 9 8 8 7 7 6 6 6 6 6 6 7 6 6 6 7 6 7 6 7 7 6 7 8 9 9 10 11 11
10 10 11 11 10 11 10 9 8 7 8 9 7 9 9 8 8 7 6 5 5 4 4 5 5 6 6 6 7 6 6 6 7 7 6 6 7 8 9 9 10 11
9 11 11 12 12 12 11 10 10 9 8 7 10 9 9 9 8 8 7 6 5 4 4 4 4 4 6 7 7 6 6 6 7 7 6 6 7 7 8 9 9 9
10 11 11 12 12 12 11 11 11 11 10 10 8 8 9 7 7 8 8 7 6 5 5 4 5 5 6 7 7 6 6 7 6 7 6 6 6 6 6 7 7 8
13 11 11 11 11 13 11 11 12 12 13 11 9 8 9 8 7 7 7 7 6 6 5 5 5 6 7 8 8 7 7 8 8 7 7 6 5 4 4 5 6 6
14 13 11 10 11 12 11 11 12 12 13 12 10 10 9 8 7 7 7 7 6 6 6 5 5 6 7 8 8 8 8 8 9 8 8 7 6 6 6 6 5 5
17 15 14 12 10 11 10 11 11 11 13 12 12 10 10 10 9 9 8 8 7 6 6 6 5 6 6 7 7 8 8 9 10 10 9 8 8 8 8 8 7 6
18 18 15 13 12 11 10 10 11 12 12 12 12 10 10 10 10 10 10 9 8 7 7 7 7 7 6 6 6 8 9 9 10 11 10 10 10 10 10 10 9 8
20 19 18 16 15 15 15 16 15 15 15 14 14 13 12 11 11 11 11 10 8 8 8 8 8 9 8 7 8 9 9 10 10 11 11 11 11 10 10 11 10 10
21 21 22 24 24 22 21 20 19 19 18 18 18 16 15 14 15 14 13 12 10 9 8 9 10 10 10 10 10 10 10 10 10 10 10 11 11 11 11 11 11 11
26 25 27 27 28 30 29 28 28 28 29 27 23 20 17 16 17 17 17 16 15 13 12 12 12 11 12 12 11 10 10 9 9 9 10 10 11 11 11 11 11 12
31 30 29 29 32 33 35 32 28 26 26 25 25 26 26 23 19 17 16 16 16 16 16 15 14 15 12 7 9 10 10 9 10 9 10 10 11 11 11 11 11 12
33 33 32 31 30 28 27 24 22 23 24 23 22 23 25 25 25 22 19 17 15 15 15 15 15 15 9 8 7 6 9 11 10 9 10 10 11 12 11 10 12 12
35 35 34 32 29 27 24 24 29 30 28 27 25 23 25 28 27 25 24 23 21 20 17 16 16 13 9 10 10 9 10 12 13 11 11 12 11 11 11 12 12 12
36 36 36 35 33 30 31 33 34 34 31 29 28 29 30 29 28 28 26 24 22 21 21 22 22 20 15 11 10 11 11 13 15 15 14 13 12 12 13 13 14 14
34 35 36 36 35 36 35 35 35 34 32 30 29 32 31 30 30 31 30 27 25 23 22 22 22 23 23 18 14 12 12 15 17 16 16 15 14 14 14 14 14 15
33 34 35 35 35 35 36 38 38 36 35 33 34 35 34 32 32 34 34 32 30 27 25 23 23 24 24 23 19 15 13 17 17 17 16 16 16 15 15 14 15 15
28 29 31 31 32 31 34 36 36 35 34 30 32 35 33 32 32 31 32 33 30 29 28 26 24 24 24 24 24 23 20 21 19 18 17 17 17 17 17 17 16 16
27 25 23 22 20 22 25 27 30 31 29 27 27 28 30 30 31 33 31 30 29 28 29 28 28 27 28 28 27 28 26 24 23 21 21 20 20 21 21 21 21 20
30 30 28 23 20 19 19 17 18 20 23 24 26 27 28 28 29 33 34 32 28 29 29 30 30 35 39 36 34 31 26 25 25 24 23 24 24 25 24 22 20 16
31 33 33 30 26 22 20 18 17 18 20 22 25 27 27 26 27 31 33 32 30 30 36 35 34 35 37 37 36 34 31 28 27 27 26 26 27 26 26 25 24 22
29 31 31 31 31 30 29 28 25 25 24 22 23 25 27 27 28 32 34 34 32 32 33 33 35 36 37 39 38 38 37 32 31 31 29 28 28 28 28 28 28 27
Wind_Direction
205 206 204 199 188 179 174 168 165 162 159 163 158 154 158 158 166 166 164 169 167 165 164 164 163 162 163 164 168 171 170 166 170 178 175 174 165 167 163 162 163 168
209 210 203 205 201 192 179 174 175 171 166 166 158 164 170 177 167 170 169 168 169 164 166 165 164 161 162 166 171 174 170 173 167 180 176 171 166 172 162 161 162 169
221 217 217 215 215 208 197 185 185 183 182 170 170 173 178 182 177 173 174 174 171 168 168 168 167 164 163 168 177 177 175 173 168 173 179 170 172 171 167 170 170 168
224 227 227 224 221 222 222 216 198 195 195 192 177 178 185 187 188 179 180 177 178 174 175 176 172 174 175 177 189 183 181 180 174 185 182 179 181 183 174 178 177 176
231 226 224 226 226 227 232 234 225 215 206 198 196 195 197 195 196 192 192 186 186 185 190 182 184 189 195 196 202 195 193 186 191 205 198 186 183 191 183 189 184 183
222 227 226 227 229 235 238 237 236 233 219 212 204 208 203 207 206 205 208 207 204 204 209 208 202 202 217 216 219 210 204 198 202 215 208 201 192 198 196 196 193 192
230 228 228 227 228 233 239 241 241 241 235 221 217 211 214 213 215 211 215 220 222 223 234 241 237 234 237 238 238 229 221 215 215 225 219 205 208 194 201 202 201 200
235 235 237 233 232 233 236 239 242 245 243 235 226 216 223 221 221 220 221 227 228 225 237 249 256 263 263 264 263 255 244 241 233 236 232 218 220 201 199 207 211 208
231 233 241 245 243 239 238 239 243 246 246 248 241 227 226 227 230 234 236 240 238 238 240 245 257 263 264 269 273 274 270 261 257 256 255 250 245 226 215 222 219 218
228 227 231 237 243 244 245 242 243 246 249 250 246 239 235 227 230 240 248 253 256 255 256 255 258 260 264 267 272 272 269 269 268 267 265 263 265 261 253 249 242 230
230 230 227 224 227 235 239 245 247 248 250 252 248 240 235 234 228 234 244 252 261 266 269 269 268 268 268 268 264 262 261 259 260 262 263 263 262 262 263 263 259 255
230 225 230 230 225 224 226 232 237 239 242 242 244 237 227 229 233 232 237 244 248 255 263 270 270 267 266 264 263 258 255 253 252 254 255 254 252 253 256 258 260 260
234 227 222 223 227 225 220 222 225 229 231 229 231 227 220 216 220 223 226 233 235 242 248 257 262 262 259 251 246 247 251 251 250 251 250 249 247 248 248 250 254 254
234 226 223 218 215 217 219 218 220 223 226 227 227 224 220 217 215 216 217 222 223 228 231 240 248 251 254 253 249 247 246 246 249 249 250 251 248 246 244 244 246 246
227 225 223 222 220 218 218 218 217 218 218 218 220 222 225 224 221 220 219 215 214 216 218 222 229 235 242 250 254 251 249 247 251 252 256 256 254 252 249 246 243 245
225 222 221 224 227 228 227 223 221 227 232 232 232 225 217 217 222 228 230 228 225 222 221 221 223 227 230 248 257 252 253 249 247 250 255 258 257 254 250 251 249 247
229 225 222 224 229 231 234 235 237 233 235 236 235 235 235 231 223 222 222 226 235 238 234 230 229 231 238 244 246 253 243 241 244 248 254 256 258 258 254 252 250 250
234 232 228 226 228 227 221 221 226 231 228 223 221 227 238 240 233 228 224 221 222 225 231 234 235 237 246 251 255 254 247 236 234 236 245 250 254 258 257 256 253 250
235 234 230 227 226 231 234 234 232 230 230 226 217 214 216 227 235 236 231 227 224 226 229 230 230 225 221 232 251 263 269 259 239 237 238 243 249 252 254 256 255 253
233 234 232 231 233 236 240 243 240 236 235 231 223 218 217 218 224 231 233 233 232 229 228 233 237 235 235 233 231 233 247 264 257 252 245 241 243 248 252 258 262 262
229 234 234 233 235 240 240 241 237 233 232 232 229 225 224 227 230 232 230 228 228 232 230 229 234 241 237 238 237 243 247 258 256 256 252 246 244 246 249 256 262 268
220 224 228 229 231 234 238 238 237 234 231 231 233 231 231 235 238 239 235 228 220 226 234 230 229 223 228 234 237 234 242 248 250 252 250 246 242 241 242 245 251 258
224 223 225 229 230 235 236 236 238 236 231 233 235 235 240 243 245 245 238 229 224 224 230 235 233 228 224 227 232 236 244 245 245 245 245 244 242 239 238 239 242 249
245 244 241 240 242 248 254 253 252 250 245 240 240 241 243 241 240 240 239 235 227 227 230 235 236 234 232 231 233 240 243 244 247 249 246 247 244 246 245 243 243 242
251 252 253 253 254 258 260 258 257 256 249 242 238 238 239 245 243 240 238 238 235 231 229 231 236 238 236 236 235 239 247 252 252 250 247 245 244 243 246 247 242 239
249 251 254 257 259 259 257 256 255 254 253 252 243 236 238 240 240 238 238 236 233 231 233 233 236 237 237 236 239 238 242 246 251 250 247 248 249 246 244 245 247 246